Starlink 31485

operational
NORAD ID: 59308 Int'l Des: 2024-056 Owner: SPXS Country: US Constellation: starlink
LEOCIRCULAR

Über Starlink 31485

Beschreibung wird geladen...

Live-Position

3D-Globus wird geladen...

Nächste Überflüge

Höhenverlauf

Altitude vs Time

uPlot chart will show altitude changes over time

Zweizeiliger Elementsatz

1 59308U 24056N 25352.23373942 .00000000 00000-0 95132-5 0 9997
2 59308 42.9995 330.9920 0001286 280.4638 79.6068 15.27575263 98690
Epoch: 18. Dez. 2025 • Age: 14 hours

Aktueller Status

Höhe 484.0 km
Geschwindigkeit 7.63 km/s
Subsatellitenpunkt 29.46°N, 22.01°W
Startdatum 24. März 2024
Alter 1.7 years
Typ internet

Technische Details

Klassifizierung Payload
Masse 730.00 kg
Trockenmasse 700.00 kg
Gesamtmasse 730.00 kg
Länge 0.30 m
Durchmesser 4.10 m
Spannweite 29.00 m
Form Box + pan
Hersteller SPXS
Bus-Typ Starlink V2M
Phasenstatus In Orbit
Besitzer/Staat SPXS/US

Große Konstellationen

Loading constellations...